Location: Newark
(36.1358°N, 115.1208°W)
Time: 21:56:18
(UTC+00:00)

Vanguard 1 Rocket - Pass Details

Date: 25 February 2020
Orbit: 650 x 4226 km, 34.3° (Epoch: 05 April)

Event Time Altitude Azimuth Distance (km) Brightness Sun altitude
Rises 13:50:37 0° 276° (W) 3,302 - -6.0°
Exits shadow 13:52:30 - 271° (W) 2,531 9.0 -5.6°
Reaches altitude 10° 13:53:25 10° 267° (W) 2,173 8.7 -5.4°
Maximum altitude 13:57:34 33° 202° (SSW) 1,088 7.7 -4.6°
Drops below altitude 10° 14:01:38 10° 137° (SE) 2,127 10.2 -3.8°
Sets 14:04:21 0° 128° (SE) 3,220 11.5 -3.2°
